• In Germany
  • List of Countries
  • For 7 days
  • Water Temperature
  • Satellite Maps
  • Weather Map
  • Weather Widgets
  • user-avatar
    Login

    Hourly Weather Ordino

    Today, 18 November, Saturday

    Time Temperature Precipitation Wind Pressure Humidity
    00:00 +2°C° 0 mm 2 mps 634 mmHg 70%
    01:00 +1°C° 0 mm 2 mps 634 mmHg 70%
    02:00 +1°C° 0 mm 2 mps 634 mmHg 71%
    03:00 +1°C° 0 mm 2 mps 634 mmHg 72%
    04:00 +1°C° 0 mm 2 mps 634 mmHg 72%
    05:00 -1°C° 0 mm 2 mps 633 mmHg 73%
    06:00 -1°C° 0 mm 2 mps 633 mmHg 73%
    07:00 +2°C° 0 mm 2 mps 634 mmHg 67%
    08:00 +3°C° 0 mm 2 mps 635 mmHg 61%
    09:00 +5°C° 0 mm 2 mps 636 mmHg 54%
    10:00 +6°C° 0 mm 2 mps 636 mmHg 50%
    11:00 +7°C° 0 mm 2 mps 636 mmHg 46%
    12:00 +8°C° 0 mm 2 mps 637 mmHg 42%
    13:00 +8°C° 0 mm 2 mps 636 mmHg 45%
    14:00 +7°C° 0 mm 2 mps 636 mmHg 47%
    15:00 +7°C° 0 mm 2 mps 636 mmHg 50%
    16:00 +5°C° 0 mm 2 mps 635 mmHg 58%
    17:00 +3°C° 0 mm 2 mps 635 mmHg 65%
    18:00 +1°C° 0 mm 2 mps 634 mmHg 73%
    19:00 -1°C° 0 mm 2 mps 634 mmHg 68%
    20:00 -1°C° 0 mm 2 mps 634 mmHg 63%
    21:00 -1°C° 0 mm 2 mps 634 mmHg 58%
    22:00 -1°C° 0 mm 2 mps 634 mmHg 55%
    23:00 -1°C° 0 mm 2 mps 634 mmHg 52%

    Tomorrow, 19 November, Sunday

    Time Temperature Precipitation Wind Pressure Humidity
    00:00 -1°C° 0 mm 2 mps 634 mmHg 49%
    01:00 -1°C° 0 mm 2 mps 634 mmHg 46%
    02:00 -1°C° 0 mm 2 mps 634 mmHg 44%
    03:00 -1°C° 0 mm 2 mps 634 mmHg 41%
    04:00 -1°C° 0 mm 2 mps 634 mmHg 40%
    05:00 -1°C° 0 mm 2 mps 634 mmHg 39%
    06:00 -1°C° 0 mm 2 mps 634 mmHg 37%
    07:00 +1°C° 0 mm 2 mps 635 mmHg 35%
    08:00 +3°C° 0 mm 2 mps 636 mmHg 34%
    09:00 +5°C° 0 mm 2 mps 637 mmHg 32%
    10:00 +6°C° 0 mm 2 mps 637 mmHg 32%
    11:00 +7°C° 0 mm 2 mps 637 mmHg 33%
    12:00 +9°C° 0 mm 2 mps 638 mmHg 33%
    13:00 +8°C° 0 mm 2 mps 637 mmHg 37%
    14:00 +8°C° 0 mm 2 mps 637 mmHg 41%
    15:00 +7°C° 0 mm 2 mps 636 mmHg 45%
    16:00 +5°C° 0 mm 2 mps 636 mmHg 52%
    17:00 +3°C° 0 mm 2 mps 635 mmHg 58%
    18:00 +1°C° 0 mm 2 mps 635 mmHg 65%
    19:00 +1°C° 0 mm 2 mps 635 mmHg 66%
    20:00 +1°C° 0 mm 2 mps 635 mmHg 67%
    21:00 +1°C° 0 mm 2 mps 635 mmHg 68%
    22:00 +1°C° 0 mm 2 mps 635 mmHg 68%
    23:00 +1°C° 0 mm 2 mps 635 mmHg 68%

    Day after tomorrow, 20 November, Monday

    Time Temperature Precipitation Wind Pressure Humidity
    00:00 +1°C° 0 mm 2 mps 635 mmHg 68%
    01:00 +1°C° 0 mm 2 mps 635 mmHg 67%
    02:00 +1°C° 0 mm 2 mps 635 mmHg 66%
    03:00 +1°C° 0 mm 2 mps 635 mmHg 65%
    04:00 +1°C° 0 mm 2 mps 635 mmHg 65%
    05:00 +1°C° 0 mm 2 mps 635 mmHg 65%
    06:00 +1°C° 0 mm 2 mps 635 mmHg 65%
    07:00 +4°C° 0 mm 1 mps 636 mmHg 60%
    08:00 +6°C° 0 mm 1 mps 637 mmHg 55%
    09:00 +8°C° 0 mm 1 mps 638 mmHg 51%
    10:00 +9°C° 0 mm 1 mps 638 mmHg 47%
    11:00 +10°C° 0 mm 1 mps 638 mmHg 44%
    12:00 +12°C° 0 mm 1 mps 638 mmHg 40%
    13:00 +11°C° 0 mm 1 mps 638 mmHg 44%
    14:00 +11°C° 0 mm 1 mps 637 mmHg 47%
    15:00 +10°C° 0 mm 1 mps 637 mmHg 51%
    16:00 +8°C° 0 mm 1 mps 636 mmHg 58%
    17:00 +6°C° 0 mm 1 mps 635 mmHg 64%
    18:00 +4°C° 0 mm 1 mps 635 mmHg 70%
    19:00 +4°C° 0 mm 1 mps 635 mmHg 69%
    20:00 +4°C° 0 mm 1 mps 635 mmHg 69%
    21:00 +4°C° 0 mm 1 mps 635 mmHg 68%
    22:00 +4°C° 0 mm 1 mps 635 mmHg 65%
    23:00 +4°C° 0 mm 1 mps 635 mmHg 63%

    21 November, Tuesday

    Time Temperature Precipitation Wind Pressure Humidity
    00:00 +4°C° 0 mm 1 mps 635 mmHg 61%
    01:00 +4°C° 0 mm 1 mps 635 mmHg 58%
    02:00 +3°C° 0 mm 1 mps 634 mmHg 55%
    03:00 +3°C° 0 mm 1 mps 634 mmHg 52%
    04:00 +3°C° 0 mm 1 mps 634 mmHg 50%
    05:00 +3°C° 0 mm 1 mps 634 mmHg 47%
    06:00 +3°C° 0 mm 1 mps 634 mmHg 44%
    07:00 +5°C° 0 mm 1 mps 635 mmHg 41%
    08:00 +7°C° 0 mm 1 mps 635 mmHg 38%
    09:00 +8°C° 0 mm 0 mps 636 mmHg 35%
    10:00 +10°C° 0 mm 1 mps 636 mmHg 32%
    11:00 +12°C° 0 mm 1 mps 637 mmHg 30%
    12:00 +13°C° 0 mm 1 mps 637 mmHg 28%
    13:00 +13°C° 0 mm 1 mps 637 mmHg 33%
    14:00 +12°C° 0 mm 1 mps 636 mmHg 37%
    15:00 +11°C° 0 mm 1 mps 636 mmHg 42%
    16:00 +9°C° 0 mm 1 mps 635 mmHg 47%
    17:00 +7°C° 0 mm 1 mps 634 mmHg 53%
    18:00 +5°C° 0 mm 1 mps 633 mmHg 58%
    19:00 +4°C° 0 mm 1 mps 633 mmHg 58%
    20:00 +4°C° 0 mm 1 mps 633 mmHg 57%
    21:00 +4°C° 0 mm 1 mps 633 mmHg 57%
    22:00 +4°C° 0 mm 1 mps 633 mmHg 57%
    23:00 +4°C° 0 mm 1 mps 633 mmHg 56%

    22 November, Wednesday

    Time Temperature Precipitation Wind Pressure Humidity
    00:00 +4°C° 0 mm 1 mps 633 mmHg 55%
    01:00 +3°C° 0 mm 1 mps 632 mmHg 54%
    02:00 +3°C° 0 mm 1 mps 632 mmHg 52%
    03:00 +3°C° 0 mm 1 mps 632 mmHg 50%
    04:00 +3°C° 0 mm 1 mps 632 mmHg 49%
    05:00 +3°C° 0 mm 1 mps 631 mmHg 48%
    06:00 +3°C° 0 mm 1 mps 631 mmHg 47%
    07:00 +3°C° 0 mm 2 mps 632 mmHg 45%
    08:00 +5°C° 0 mm 2 mps 632 mmHg 42%
    09:00 +7°C° 0 mm 2 mps 633 mmHg 40%
    10:00 +8°C° 0 mm 2 mps 633 mmHg 39%
    11:00 +9°C° 0 mm 2 mps 633 mmHg 38%
    12:00 +11°C° 0 mm 3 mps 634 mmHg 36%
    13:00 +10°C° 0 mm 3 mps 633 mmHg 40%
    14:00 +9°C° 0 mm 3 mps 632 mmHg 44%
    15:00 +9°C° 0 mm 3 mps 632 mmHg 48%
    16:00 +7°C° 0 mm 2 mps 631 mmHg 57%
    17:00 +5°C° 0 mm 2 mps 631 mmHg 66%
    18:00 +3°C° 0 mm 2 mps 630 mmHg 75%
    19:00 +3°C° 0 mm 2 mps 630 mmHg 76%
    20:00 +3°C° 0 mm 2 mps 630 mmHg 77%
    21:00 +3°C° 0 mm 2 mps 630 mmHg 78%
    22:00 +3°C° 0 mm 2 mps 630 mmHg 77%
    23:00 +3°C° 0 mm 2 mps 630 mmHg 76%

    23 November, Thursday

    Time Temperature Precipitation Wind Pressure Humidity
    00:00 +2°C° 0 mm 2 mps 630 mmHg 74%
    01:00 +2°C° 0 mm 2 mps 629 mmHg 73%
    02:00 +2°C° 0 mm 2 mps 629 mmHg 72%
    03:00 +2°C° 0 mm 2 mps 629 mmHg 71%
    04:00 +2°C° 0 mm 2 mps 630 mmHg 69%
    05:00 +3°C° 0 mm 2 mps 630 mmHg 67%
    06:00 +3°C° 0 mm 2 mps 630 mmHg 65%
    07:00 +4°C° 0 mm 2 mps 631 mmHg 62%
    08:00 +5°C° 0 mm 2 mps 631 mmHg 59%
    09:00 +5°C° 0 mm 3 mps 632 mmHg 56%
    10:00 +8°C° 0 mm 3 mps 632 mmHg 51%
    11:00 +9°C° 0 mm 3 mps 633 mmHg 47%
    12:00 +11°C° 0 mm 3 mps 633 mmHg 43%
    13:00 +10°C° 0 mm 3 mps 633 mmHg 45%
    14:00 +10°C° 0 mm 3 mps 633 mmHg 48%
    15:00 +9°C° 0 mm 3 mps 633 mmHg 51%
    16:00 +8°C° 0 mm 2 mps 632 mmHg 56%
    17:00 +6°C° 0 mm 2 mps 632 mmHg 60%
    18:00 +5°C° 0 mm 2 mps 632 mmHg 65%
    19:00 +5°C° 0 mm 2 mps 632 mmHg 67%
    20:00 +4°C° 0 mm 2 mps 632 mmHg 68%
    21:00 +4°C° 0 mm 2 mps 632 mmHg 70%
    22:00 +4°C° 0 mm 2 mps 632 mmHg 70%
    23:00 +4°C° 0 mm 2 mps 632 mmHg 70%
    Show more